When you browse on this site, cookies collect data to enhance your experience and personalize the content and advertising you see.
Visit our Privacy Policy to learn more. By continuing to use the site, you agree to this use of cookies and data.
  • In Czech Republic
  • List of Countries
  • For 7 days
  • Water Temperature
  • Weather Map
  • Weather Widgets
  • user-avatar
    Login

    Hourly Weather Neseta

    Today, 3 June, Wednesday

    Time Temperature Precipitation Wind Pressure Humidity
    00:00 +6°C° 0 mm 2 mps 740 mmHg 95%
    01:00 +6°C° 0 mm 2 mps 741 mmHg 96%
    02:00 +6°C° 0 mm 2 mps 741 mmHg 96%
    03:00 +6°C° 0 mm 2 mps 741 mmHg 96%
    04:00 +6°C° 0 mm 2 mps 740 mmHg 96%
    05:00 +5°C° 0 mm 3 mps 740 mmHg 97%
    06:00 +8°C° 0 mm 3 mps 740 mmHg 92%
    07:00 +10°C° 0 mm 4 mps 740 mmHg 88%
    08:00 +12°C° 0 mm 4 mps 740 mmHg 84%
    09:00 +13°C° 0.3 mm 5 mps 740 mmHg 79%
    10:00 +14°C° 0.3 mm 5 mps 740 mmHg 74%
    11:00 +15°C° 0.3 mm 6 mps 740 mmHg 69%
    12:00 +15°C° 0.4 mm 5 mps 740 mmHg 69%
    13:00 +15°C° 0.4 mm 5 mps 740 mmHg 69%
    14:00 +16°C° 0.4 mm 5 mps 739 mmHg 70%
    15:00 +15°C° 0.5 mm 4 mps 739 mmHg 73%
    16:00 +15°C° 0.5 mm 4 mps 739 mmHg 76%
    17:00 +15°C° 0.5 mm 4 mps 739 mmHg 78%
    18:00 +13°C° 0.2 mm 3 mps 739 mmHg 83%
    19:00 +12°C° 0.2 mm 3 mps 739 mmHg 87%
    20:00 +12°C° 0.2 mm 2 mps 738 mmHg 91%
    21:00 +10°C° 0 mm 2 mps 738 mmHg 92%
    22:00 +9°C° 0 mm 2 mps 738 mmHg 93%
    23:00 +8°C° 0 mm 2 mps 738 mmHg 95%

    Tomorrow, 4 June, Thursday

    Time Temperature Precipitation Wind Pressure Humidity
    00:00 +8°C° 0 mm 2 mps 738 mmHg 95%
    01:00 +8°C° 0 mm 2 mps 738 mmHg 95%
    02:00 +7°C° 0 mm 2 mps 738 mmHg 96%
    03:00 +7°C° 0 mm 2 mps 738 mmHg 96%
    04:00 +7°C° 0 mm 2 mps 738 mmHg 97%
    05:00 +7°C° 0 mm 2 mps 737 mmHg 97%
    06:00 +9°C° 0 mm 2 mps 737 mmHg 93%
    07:00 +12°C° 0 mm 2 mps 737 mmHg 89%
    08:00 +12°C° 0 mm 3 mps 738 mmHg 84%
    09:00 +14°C° 0 mm 3 mps 737 mmHg 76%
    10:00 +16°C° 0 mm 3 mps 737 mmHg 69%
    11:00 +17°C° 0 mm 4 mps 737 mmHg 61%
    12:00 +17°C° 0.3 mm 4 mps 737 mmHg 62%
    13:00 +18°C° 0.3 mm 4 mps 737 mmHg 63%
    14:00 +18°C° 0.3 mm 4 mps 737 mmHg 64%
    15:00 +17°C° 0.5 mm 4 mps 736 mmHg 68%
    16:00 +17°C° 0.5 mm 3 mps 736 mmHg 72%
    17:00 +16°C° 0.5 mm 3 mps 736 mmHg 76%
    18:00 +14°C° 0.5 mm 3 mps 736 mmHg 80%
    19:00 +14°C° 0.5 mm 2 mps 736 mmHg 85%
    20:00 +12°C° 0.5 mm 2 mps 736 mmHg 90%
    21:00 +10°C° 0 mm 2 mps 736 mmHg 92%
    22:00 +10°C° 0 mm 2 mps 736 mmHg 93%
    23:00 +9°C° 0 mm 3 mps 736 mmHg 95%

    Day after tomorrow, 5 June, Friday

    Time Temperature Precipitation Wind Pressure Humidity
    00:00 +8°C° 0 mm 2 mps 736 mmHg 96%
    01:00 +8°C° 0 mm 2 mps 737 mmHg 96%
    02:00 +8°C° 0 mm 2 mps 737 mmHg 96%
    03:00 +8°C° 0 mm 2 mps 737 mmHg 96%
    04:00 +8°C° 0 mm 2 mps 737 mmHg 97%
    05:00 +8°C° 0 mm 2 mps 737 mmHg 97%
    06:00 +10°C° 0 mm 2 mps 737 mmHg 93%
    07:00 +13°C° 0 mm 2 mps 737 mmHg 90%
    08:00 +14°C° 0 mm 3 mps 737 mmHg 86%
    09:00 +17°C° 0 mm 3 mps 737 mmHg 79%
    10:00 +18°C° 0 mm 3 mps 737 mmHg 71%
    11:00 +20°C° 0 mm 4 mps 737 mmHg 64%
    12:00 +20°C° 0.3 mm 4 mps 737 mmHg 68%
    13:00 +20°C° 0.3 mm 5 mps 737 mmHg 72%
    14:00 +19°C° 0.3 mm 5 mps 737 mmHg 76%
    15:00 +17°C° 0.2 mm 5 mps 737 mmHg 82%
    16:00 +16°C° 0.2 mm 5 mps 737 mmHg 88%
    17:00 +15°C° 0.2 mm 4 mps 737 mmHg 93%
    18:00 +15°C° 0.4 mm 4 mps 737 mmHg 94%
    19:00 +15°C° 0.4 mm 4 mps 737 mmHg 96%
    20:00 +16°C° 0.4 mm 3 mps 737 mmHg 97%
    21:00 +16°C° 0.5 mm 3 mps 738 mmHg 97%
    22:00 +15°C° 0.5 mm 4 mps 738 mmHg 96%
    23:00 +15°C° 0.5 mm 4 mps 738 mmHg 96%

    6 June, Saturday

    Time Temperature Precipitation Wind Pressure Humidity
    00:00 +16°C° 0 mm 3 mps 738 mmHg 96%
    01:00 +16°C° 0 mm 3 mps 738 mmHg 96%
    02:00 +14°C° 0 mm 3 mps 738 mmHg 96%
    03:00 +14°C° 0 mm 3 mps 738 mmHg 96%
    04:00 +15°C° 0 mm 4 mps 738 mmHg 95%
    05:00 +15°C° 0 mm 4 mps 738 mmHg 95%
    06:00 +17°C° 0 mm 4 mps 738 mmHg 92%
    07:00 +17°C° 0 mm 5 mps 739 mmHg 90%
    08:00 +19°C° 0 mm 5 mps 739 mmHg 87%
    09:00 +19°C° 0 mm 5 mps 740 mmHg 85%
    10:00 +19°C° 0 mm 5 mps 741 mmHg 83%
    11:00 +20°C° 0 mm 5 mps 742 mmHg 81%
    12:00 +21°C° 0.3 mm 5 mps 742 mmHg 76%
    13:00 +22°C° 0.3 mm 5 mps 742 mmHg 71%
    14:00 +23°C° 0.3 mm 5 mps 743 mmHg 65%
    15:00 +23°C° 0 mm 4 mps 743 mmHg 65%
    16:00 +23°C° 0 mm 4 mps 743 mmHg 65%
    17:00 +23°C° 0 mm 4 mps 744 mmHg 64%
    18:00 +21°C° 0 mm 3 mps 744 mmHg 71%
    19:00 +19°C° 0 mm 2 mps 745 mmHg 77%
    20:00 +18°C° 0 mm 1 mps 745 mmHg 84%
    21:00 +16°C° 0 mm 1 mps 746 mmHg 86%
    22:00 +15°C° 0 mm 1 mps 746 mmHg 88%
    23:00 +15°C° 0 mm 1 mps 747 mmHg 90%

    7 June, Sunday

    Time Temperature Precipitation Wind Pressure Humidity
    00:00 +14°C° 0 mm 1 mps 747 mmHg 90%
    01:00 +14°C° 0 mm 1 mps 747 mmHg 91%
    02:00 +14°C° 0 mm 1 mps 747 mmHg 91%
    03:00 +14°C° 0 mm 1 mps 748 mmHg 90%
    04:00 +14°C° 0 mm 1 mps 748 mmHg 90%
    05:00 +15°C° 0 mm 2 mps 748 mmHg 89%
    06:00 +17°C° 0 mm 2 mps 748 mmHg 84%
    07:00 +19°C° 0 mm 3 mps 748 mmHg 79%
    08:00 +20°C° 0 mm 3 mps 748 mmHg 73%
    09:00 +22°C° 0.1 mm 4 mps 748 mmHg 72%
    10:00 +23°C° 0.1 mm 4 mps 748 mmHg 70%
    11:00 +26°C° 0.1 mm 4 mps 749 mmHg 68%
    12:00 +26°C° 0.6 mm 4 mps 748 mmHg 69%
    13:00 +26°C° 0.6 mm 5 mps 748 mmHg 70%
    14:00 +26°C° 0.6 mm 5 mps 748 mmHg 71%
    15:00 +26°C° 0.1 mm 5 mps 747 mmHg 69%
    16:00 +26°C° 0.1 mm 5 mps 747 mmHg 67%
    17:00 +27°C° 0.1 mm 4 mps 747 mmHg 65%
    18:00 +25°C° 0 mm 4 mps 747 mmHg 71%
    19:00 +22°C° 0 mm 4 mps 747 mmHg 77%
    20:00 +21°C° 0 mm 4 mps 747 mmHg 83%
    21:00 +20°C° 0 mm 4 mps 747 mmHg 84%
    22:00 +20°C° 0 mm 4 mps 747 mmHg 85%
    23:00 +19°C° 0 mm 4 mps 748 mmHg 86%

    8 June, Monday

    Time Temperature Precipitation Wind Pressure Humidity
    00:00 +19°C° 0 mm 4 mps 748 mmHg 89%
    01:00 +18°C° 0 mm 3 mps 748 mmHg 91%
    02:00 +17°C° 0 mm 3 mps 748 mmHg 94%
    03:00 +17°C° 0 mm 3 mps 748 mmHg 94%
    04:00 +17°C° 0 mm 3 mps 748 mmHg 94%
    05:00 +17°C° 0 mm 3 mps 748 mmHg 95%
    06:00 +19°C° 0 mm 3 mps 748 mmHg 89%
    07:00 +21°C° 0 mm 4 mps 748 mmHg 84%
    08:00 +23°C° 0 mm 4 mps 748 mmHg 78%
    09:00 +25°C° 0 mm 5 mps 748 mmHg 72%
    10:00 +26°C° 0 mm 5 mps 748 mmHg 66%
    11:00 +28°C° 0 mm 5 mps 748 mmHg 60%
    12:00 +28°C° 0.1 mm 5 mps 748 mmHg 60%
    13:00 +28°C° 0.1 mm 5 mps 748 mmHg 60%
    14:00 +28°C° 0.1 mm 5 mps 748 mmHg 60%
    15:00 +28°C° 0 mm 5 mps 748 mmHg 62%
    16:00 +28°C° 0 mm 5 mps 747 mmHg 64%
    17:00 +28°C° 0 mm 5 mps 747 mmHg 66%
    18:00 +26°C° 0.1 mm 4 mps 747 mmHg 73%
    19:00 +25°C° 0.1 mm 4 mps 747 mmHg 79%
    20:00 +22°C° 0.1 mm 3 mps 748 mmHg 85%
    21:00 +21°C° 0 mm 3 mps 748 mmHg 87%
    22:00 +21°C° 0 mm 3 mps 748 mmHg 89%
    23:00 +20°C° 0 mm 3 mps 748 mmHg 92%
    Show more